Volver al catálogo

ORCA-2B

ActivoCienciaSSO
NORAD 63221·PAYLOAD·🇺🇸 United States
Este nombre de satélite aún no ha sido confirmado por fuentes oficiales.

Lanzado Mar 15, 2025 desde Vandenberg Space Force Base

Loading…

Próximos Pases (próximas 24 horas)

TLE

ActualizadoSource: Space-Track

Época: Sep 13, 2026, 16:28 UTC

1 63221U 25052M   26256.68668352  .00002646  00000-0  11733-3 0  9999
2 63221  97.3742 147.2313 0003494 161.5312 198.6052 15.22458650 83301

Sigue ORCA-2B en tiempo real con AllMySat

Download on the App Store